Powrót do katalogu

STARLINK-34884

AktywnyŁącznośćVLEO
NORAD 66287·PAYLOAD·🇺🇸 United States

Wystrzelony Oct 31, 2025 z Vandenberg Space Force Base

Loading…

Następne Przeloty (najbliższe 24 godziny)

TLE

ŚwieżeSource: CelesTrak SupGP

Epoka: Sep 14, 2026, 14:12 UTC

1 66287C 25247Y   26257.59215278 -.00092947  00000+0 -27460-2 0  2570
2 66287  53.1600  29.6919 0001058  77.3654  19.6737 15.34439098    18

Śledź STARLINK-34884 w czasie rzeczywistym z AllMySat

Download on the App Store